sat.trackr.live / text

‹ back to catalog

STARLINK-11382 [DTC]

NORAD 62881 · 2025-024C

PAYLOAD ACTIVE UNKNOWN

§ Identity

Operator
Country
US
Launch date
2025-02-04
Launch site
AFETR
Launch vehicle
Mass (kg)
RCS (m²)

Purposes: comms

External: N2YO · Heavens-Above · Gunter

§ Orbital elements

Epoch: 2026-09-21T21:26:40.026912Z

Period
91.66 min
Inclination
43.0014°
Eccentricity
0.0005007
Mean motion
15.70963165 rev/d
Perigee alt
352.8 km
Apogee alt
359.5 km
Semi-major
6,734.3 km
B*
1.1581e-3
RAAN
78.8738°
Arg perigee
269.9004°
Mean anomaly
90.1290°
Rev number
9,432

§ Raw data

STARLINK-11382 [DTC]1 62881U 25024C   26264.89351883  .00151757  00000+0  11581-2 0  99962 62881  43.0014  78.8738 0005007 269.9004  90.1290 15.70963165 94324

JSON: /api/v1/satellites/62881 · /tle

For live sub-satellite position, see the globe view (requires WebGL).

§ Visibility from observer

Set your observer location to see the next 7 days of passes ≥ 10°. The values pass through the URL so the page stays shareable.

No JS? Fill the form by hand. The geolocation button needs JavaScript.